Volver al catálogo

STARLINK-5670

ActivoComunicacionesVLEO
NORAD 55341·PAYLOAD·🇺🇸 United States

Lanzado Jan 26, 2023 desde Cape Canaveral Space Force Station

Loading…

Próximos Pases (próximas 24 horas)

TLE

ActualizadoSource: CelesTrak SupGP

Época: Sep 15, 2026, 02:04 UTC

1 55341C 23013L   26258.08659722  .00032185  00000+0  11659-2 0  2589
2 55341  43.0030 314.1165 0001634 281.2072 145.2358 15.27557211    12

Sigue STARLINK-5670 en tiempo real con AllMySat

Download on the App Store